Flag for U.S.A. Weather past 2 weeks in French Lick, Indiana, U.S.A.

Now
18 °F

Clear.


Feels Like: 6 °F
Forecast: 9 / 24 °F
Wind: 10 mph from North

Location: Huntingburg Airport

Current Time: Mar 5, 2015 at 7:29:04 AM

Latest Report: Mar 5, 2015 at 6:55 AM


Visibility: 10 mi

Pressure: 30.34 "Hg

Humidity: 62%

Dew point: 7 °F

Location of French LickLocation

Historic Weather in French Lick — Graph

°F

French Lick temperature yesterday

Maximum temperature yesterday: 43 °F (at 12:15 AM)
Minimum temperature yesterday: 18 °F (at 9:55 PM)
Average temperature yesterday: 30 °F

Past Weeks' High & Low Weather Summary

 TemperatureHumidityPressure
High50 °F (Mar 3, 4:35 PM)94% (Mar 3, 3:35 PM)30.69 "Hg (Mar 3, 3:35 PM)
Low-11 °F (Feb 20, 2:55 AM)41% (Feb 20, 2:35 PM)29.81 "Hg (Mar 3, 3:55 PM)
Average23 °F69%30.27 "Hg
* Reported Feb 18 6:15 AM — Mar 5 6:35 AM, French Lick, Weather by CustomWeather, © 2015

Note: Actual official high and low records may vary slightly from our data, if they occured in-between our weather recording intervals... More about our weather records

Advertising

French Lick weather history for previous 24 hours

 ConditionsComfort  
Time TempWeatherWind HumidityBarometerVisibility
6:35 AM
Thu, Mar 5
18 °FClear.13 mph62%30.34 "Hg10 mi
6:15 AM18 °FClear.15 mph62%30.36 "Hg10 mi
5:55 AM18 °FClear.12 mph62%30.33 "Hg10 mi
5:35 AM18 °FClear.10 mph62%30.34 "Hg10 mi
5:15 AM18 °FClear.10 mph62%30.30 "Hg10 mi
4:55 AM19 °FClear.12 mph58%30.31 "Hg10 mi
4:35 AM19 °FClear.12 mph63%30.31 "Hg10 mi
4:15 AM19 °FClear.8 mph63%30.30 "Hg10 mi
3:55 AM19 °FClear.10 mph63%30.29 "Hg10 mi
3:35 AM19 °FClear.10 mph63%30.30 "Hg10 mi
3:15 AM19 °FClear.9 mph63%30.30 "Hg10 mi
2:55 AM19 °FClear.9 mph63%30.30 "Hg10 mi
2:35 AM19 °FClear.9 mph63%30.31 "Hg10 mi
2:15 AM19 °FClear.13 mph63%30.30 "Hg10 mi
1:55 AM19 °FClear.12 mph63%30.30 "Hg10 mi
1:35 AM19 °FClear.10 mph63%30.28 "Hg10 mi
1:15 AM19 °FClear.12 mph63%30.29 "Hg10 mi
12:55 AM19 °FClear.13 mph63%30.29 "Hg10 mi
12:35 AM19 °FClear.12 mph68%30.28 "Hg10 mi
12:15 AM19 °FClear.9 mph68%30.29 "Hg10 mi
11:55 PM
Wed, Mar 4
19 °FClear.12 mph68%30.27 "Hg10 mi
11:35 PM19 °FClear.9 mph73%30.29 "Hg10 mi
11:15 PM18 °FClear.9 mph79%30.29 "Hg5 mi
10:35 PM18 °FClear.9 mph86%30.29 "Hg1 mi
10:15 PM18 °FClear.12 mph86%30.28 "Hg1 mi
9:55 PM18 °FClear.13 mph79%30.27 "Hg1 mi
9:15 PM19 °FIce fog.13 mph79%30.26 "Hg1 mi
8:55 PM19 °FClear.10 mph79%30.24 "Hg1 mi
8:35 PM19 °FClear.10 mph86%30.23 "Hg1 mi
8:15 PM19 °FIce fog.14 mph86%30.25 "Hg1 mi
7:55 PM19 °FClear.13 mph86%30.23 "Hg1 mi
7:35 PM19 °FIce fog.13 mph86%30.22 "Hg1 mi
7:15 PM19 °FIce fog.12 mph86%30.21 "Hg1 mi
6:55 PM19 °FIce fog.13 mph86%30.20 "Hg1 mi
6:35 PM21 °FIce fog.13 mph80%30.18 "Hg0 mi
6:15 PM21 °FIce fog.14 mph86%30.18 "Hg1 mi
5:55 PM21 °FIce fog.10 mph86%30.17 "Hg0 mi
5:35 PM21 °FPartly sunny.13 mph86%30.17 "Hg1 mi
5:15 PM21 °FMore clouds than sun.10 mph86%30.14 "Hg1 mi
4:15 PM23 °FIce fog.15 mph86%30.11 "Hg1 mi
3:55 PM25 °FIce fog.15 mph80%30.10 "Hg1 mi
3:35 PM25 °FIce fog.16 mph86%30.09 "Hg1 mi
3:15 PM25 °FPartly sunny.18 mph86%30.09 "Hg1 mi
2:55 PM27 °FPartly sunny.18 mph80%30.07 "Hg1 mi
2:35 PM27 °FSunny.18 mph80%30.08 "Hg1 mi
2:15 PM27 °FIce fog.15 mph86%30.08 "Hg1 mi
1:55 PM28 °FPartly sunny.13 mph86%30.09 "Hg1 mi
1:35 PM28 °FPartly sunny.13 mph86%30.10 "Hg1 mi
1:15 PM30 °FPartly sunny.13 mph86%30.09 "Hg1 mi
12:55 PM30 °FIce fog.12 mph86%30.09 "Hg1 mi
12:35 PM30 °FScattered clouds.14 mph86%30.09 "Hg2 mi
11:55 AM34 °FPassing clouds.8 mph81%30.07 "Hg3 mi
11:35 AM34 °FSunny.9 mph81%30.07 "Hg3 mi
11:15 AM34 °FSunny.9 mph81%30.07 "Hg3 mi
10:55 AM34 °FPassing clouds.9 mph81%30.06 "Hg4 mi
10:35 AM34 °FScattered clouds.9 mph87%30.04 "Hg5 mi
10:15 AM34 °FPassing clouds.10 mph87%30.03 "Hg5 mi
9:55 AM34 °FPassing clouds.8 mph87%30.02 "Hg5 mi
9:35 AM34 °FPassing clouds.9 mph87%30.03 "Hg4 mi
9:15 AM34 °FScattered clouds.7 mph87%30.02 "Hg4 mi
8:55 AM34 °FScattered clouds.7 mph87%30.01 "Hg4 mi
8:35 AM34 °FPassing clouds.8 mph87%30.02 "Hg4 mi
8:15 AM34 °FScattered clouds.8 mph87%30.00 "Hg3 mi
7:55 AM36 °FScattered clouds.8 mph81%30.00 "Hg3 mi
7:35 AM36 °FSunny.8 mph87%30.00 "Hg3 mi
7:15 AM36 °FPassing clouds.9 mph87%29.99 "Hg5 mi
Weather by CustomWeather, © 2015

See weather overviewHow to use our weather pages